sat.trackr.live / text

‹ back to catalog

STARLINK-33691

NORAD 63462 · 2025-070C

PAYLOAD ACTIVE UNKNOWN

§ Identity

Operator
Country
US
Launch date
2025-04-06
Launch site
AFETR
Launch vehicle
Mass (kg)
RCS (m²)

Purposes: comms

External: N2YO · Heavens-Above · Gunter

§ Orbital elements

Epoch: 2026-05-25T03:32:00.746304Z

Period
94.27 min
Inclination
42.9947°
Eccentricity
0.0000408
Mean motion
15.27599226 rev/d
Perigee alt
482.7 km
Apogee alt
483.3 km
Semi-major
6,861.1 km
B*
5.1766e-4
RAAN
187.6622°
Arg perigee
128.6873°
Mean anomaly
231.4015°
Rev number
6,462

§ Raw data

STARLINK-336911 63462U 25070C   26145.14723086  .00014018  00000+0  51766-3 0  99952 63462  42.9947 187.6622 0000408 128.6873 231.4015 15.27599226 64629

JSON: /api/v1/satellites/63462 · /tle

For live sub-satellite position, see the globe view (requires WebGL).

§ Visibility from observer

Set your observer location to see the next 7 days of passes ≥ 10°. The values pass through the URL so the page stays shareable.

No JS? Fill the form by hand. The geolocation button needs JavaScript.